This demonstration page uses our WeatherBlox Daily Observations layout. Learn more.

Left ArrowRight Arrow

41.86663, -103.66717

Hourly Observations for May 24, 2022

Temp ( °F °C ) Dew Point ( °F °C ) Humidity (%) Winds ( mph kmh ) Pressure ( in mb ) Visibility ( mi km ) Precip ( " mm )
12:53 am 00:53 Cloudy 44 6.7 42 5.6 93 93 ESE 9 15 30.09 1019 8 13 0.00 0.00
1:04 am 01:04 Cloudy with Mist and Fog 45 7 43 6 93 93 ESE 8 13 30.09 1019 5 8 0.00 0.00
1:15 am 01:15 Cloudy with Mist and Fog 44 6.7 42 5.6 93 93 ESE 9 15 30.10 1019 2 3 0.00 0.00
1:32 am 01:32 Mostly Cloudy with Fog 43 6.1 41 5 93 93 ESE 6 9 30.10 1019 1 1 0.00 0.00
1:38 am 01:38 Mostly Cloudy with Fog 43 6 41 5 93 93 ESE 7 11 30.10 1019 0 0 0.00 0.00
1:53 am 01:53 Mostly Cloudy with Fog 42 5.6 41 5 96 96 E 6 9 30.07 1018 0 0 0.00 0.00
2:24 am 02:24 Mostly Cloudy with Fog 43 6.1 42 5.6 97 97 SE 7 11 30.09 1019 1 1 0.00 0.00
2:50 am 02:50 Mostly Cloudy with Fog 43 6 41 5 93 93 SE 5 7 30.08 1019 0 0 0.00 0.00
2:53 am 02:53 Mostly Cloudy with Fog 43 6.1 42 5.6 97 97 SE 5 7 30.05 1018 0 0 0.00 0.00
3:03 am 03:03 Mostly Cloudy with Fog 43 6.1 42 5.6 97 97 ESE 5 7 30.08 1018 1 1 0.00 0.00
3:53 am 03:53 Mostly Cloudy with Fog 43 6.1 41 5 93 93 Calm 30.04 1017 0 0 0.00 0.00
4:11 am 04:11 Mostly Cloudy with Fog 43 6.1 41 5 93 93 Calm 30.08 1018 0 0 0.00 0.00
4:32 am 04:32 Mostly Cloudy with Fog 43 6.1 41 5 93 93 Calm 30.08 1018 1 1 0.00 0.00
4:53 am 04:53 Cloudy with Mist and Fog 43 6.1 41 5 93 93 Calm 30.04 1017 1 2 0.00 0.00
5:12 am 05:12 Cloudy with Mist and Fog 43 6.1 42 5.6 97 97 Calm 30.08 1018 3 5 0.00 0.00
5:53 am 05:53 Cloudy with Mist and Fog 43 6.1 41 5 93 93 S 3 6 30.05 1018 4 6 0.00 0.00
6:48 am 06:48 Mostly Cloudy with Mist and Fog 45 7 41 5 87 87 Calm 30.07 1018 5 8 0.00 0.00
6:53 am 06:53 Mostly Cloudy with Mist and Fog 44 6.7 42 5.6 93 93 Calm 30.06 1018 5 8 0.00 0.00
7:00 am 07:00 Partly Cloudy with Mist and Fog 44 6.7 42 5.6 93 93 NW 3 6 30.08 1018 5 8 0.00 0.00
7:27 am 07:27 Mostly Cloudy 46 7.8 42 5.6 86 86 Calm 30.06 1018 7 11 0.00 0.00
7:53 am 07:53 Cloudy 46 7.8 42 5.6 86 86 ESE 5 7 30.05 1018 7 11 0.00 0.00
8:53 am 08:53 Cloudy 47 8.3 41 5 80 80 E 7 11 30.05 1018 10 16 0.00 0.00
9:20 am 09:20 Cloudy 48 8.9 41 5 77 77 SE 6 9 30.03 1017 10 16 0.00 0.00
9:53 am 09:53 Cloudy 50 10 39 3.9 66 66 ESE 7 11 30.04 1017 10 16 0.00 0.00
10:53 am 10:53 Cloudy 52 11.1 39 3.9 61 61 undefined N/A 30.03 1017 10 16 0.00 0.00
11:53 am 11:53 Mostly Sunny 55 12.8 40 4.4 57 57 SE 6 9 30.01 1016 10 16 0.00 0.00
12:53 pm 12:53 Mostly Sunny 56 13.3 40 4.4 55 55 undefined N/A 30.00 1016 10 16 0.00 0.00
1:53 pm 13:53 Mostly Sunny 58 14.4 40 4.4 51 51 SE 9 15 29.98 1015 10 16 0.00 0.00
2:53 pm 14:53 Mostly Sunny 58 14.4 40 4.4 51 51 SE 17 28 29.98 1015 10 16 0.00 0.00
3:53 pm 15:53 Sunny 57 13.9 39 3.9 51 51 SSE 14 22 29.98 1015 10 16 0.00 0.00
4:53 pm 16:53 Sunny 57 13.9 38 3.3 49 49 E 13 20 29.98 1015 10 16 0.00 0.00
5:53 pm 17:53 Sunny 55 12.8 39 3.9 55 55 ESE 12 19 29.98 1015 10 16 0.00 0.00
6:53 pm 18:53 Sunny 54 12.2 39 3.9 57 57 SE 7 11 29.98 1015 10 16 0.00 0.00
7:53 pm 19:53 Sunny 53 11.7 39 3.9 59 59 SSE 7 11 30.00 1016 10 16 0.00 0.00
8:53 pm 20:53 Clear 50 10 40 4.4 68 68 S 3 6 30.02 1017 10 16 0.00 0.00
9:53 pm 21:53 Clear 48 8.9 38 3.3 68 68 Calm 30.04 1017 10 16 0.00 0.00
10:53 pm 22:53 Clear 45 7.2 37 2.8 74 74 E 3 6 30.05 1018 10 16 0.00 0.00
11:53 pm 23:53 Clear 42 5.6 36 2.2 79 79 NE 6 9 30.04 1017 10 16 0.00 0.00

Powered by AerisWeather